Location: Argonnex
(45.9500°N, 6.1333°E)
Time: 21:56:33
(UTC+00:00)

Daily predictions for brighter satellites

Satellite Brightness Start Highest point End
(mag) Time Altitude Azimuth Time Altitude Azimuth Time Altitude Azimuth
USA 234 4.3 20:02:00 10° ENE 20:06:50 22° ESE 20:11:38 10° S
SJ 16-02 1.3 20:02:41 10° S 20:06:58 68° ESE 20:11:17 10° NNE
Meteor 1-21 4.4 20:02:56 10° S 20:08:38 61° E 20:14:22 10° NNE
Cosmos 1241 Rocket 4.4 20:02:42 10° SSW 20:08:51 79° ESE 20:15:08 10° NE
BlueWalker 3 2.0 20:05:58 10° WSW 20:09:44 79° NNW 20:13:29 10° ENE
SL-4 R/B 2.2 20:08:09 10° WNW 20:11:55 64° NNE 20:15:56 10° ESE
MOS 1 Rocket 4.3 20:07:52 10° SE 20:12:45 38° ENE 20:17:28 10° N
ARGOS Delta rocket 3.6 20:09:13 10° SSE 20:13:36 82° ENE 20:18:01 10° N
Terra 2.4 20:09:56 10° SE 20:14:22 43° ENE 20:18:51 10° N
Okean-O 2.9 20:10:28 10° S 20:14:51 72° WSW 20:19:17 10° NNW
SL-14 R/B 3.3 20:12:53 10° SSW 20:16:41 80° WNW 20:20:30 10° N
Cosmos 2237 Rocket 4.0 20:13:06 10° N 20:17:18 21° NE 20:21:29 10° E
Cosmos 2333 Rocket 2.7 20:11:51 10° NNW 20:17:32 60° WSW 20:23:11 10° S
COSMOS 2455 3.7 20:12:59 10° SSE 20:18:03 29° ESE 20:23:10 10° NE
CZ-4C R/B 2.9 20:14:46 10° SSE 20:18:15 23° ESE 20:22:16 10° ENE
BREEZE-M DEB (TANK) 1.7 20:16:19 10° WNW 20:18:22 77° NNE 20:21:07 10° ESE
Meteor 1-4 Rocket 2.3 20:16:06 10° S 20:18:58 47° E 20:21:54 10° NNE
Okean 1-7 3.8 20:15:17 10° SSE 20:19:10 34° E 20:23:03 10° NNE
CZ-4C R/B 3.4 20:16:03 10° NNE 20:20:13 79° ESE 20:24:14 10° S
BREEZE-M DEB (TANK) 4.5 20:19:54 10° SSE 20:20:45 11° SE 20:21:21 10° SE
Okean O Rocket 3.3 20:19:10 10° SSW 20:23:05 32° W 20:26:59 10° NNW
SPOT 5 2.7 20:18:56 10° SSE 20:23:18 84° WSW 20:27:51 10° NNW
USA 245 4.0 20:19:20 10° SSE 20:23:30 59° ENE 20:28:41 10° N
Cosmos 1862 Rocket 3.6 20:19:30 10° S 20:23:55 77° E 20:28:23 10° NNE
ERS-1 Rocket 3.0 20:22:58 10° SSE 20:27:56 69° ENE 20:32:57 10° N
Cosmos 2228 Rocket 3.5 20:23:47 10° SSW 20:28:19 72° W 20:32:55 10° N
IRS-1A Rocket 4.3 20:23:35 10° SSE 20:29:04 86° ENE 20:34:41 10° NNW
Cosmos 1814 Rocket 4.3 20:24:03 10° NNW 20:29:22 72° WSW 20:34:40 10° SSE
Okean 3 3.4 20:26:03 10° S 20:30:12 73° E 20:34:24 10° NNE
Cosmos 1300 3.4 20:28:03 10° NNW 20:31:29 47° W 20:34:53 10° SSW
Cosmos 1242 Rocket 3.1 20:30:32 13° SE 20:32:18 23° E 20:34:33 10° NE
Cosmos 2322 3.9 20:26:44 10° NNW 20:32:23 64° ENE 20:37:36 12° SE
Okean 2 3.7 20:28:49 10° SSE 20:32:37 44° E 20:36:28 10° NNE
Cosmos 2322 Rocket 3.7 20:30:01 10° NW 20:34:59 32° WSW 20:39:55 10° SSW
Meteor 1-16 Rocket 4.4 20:30:15 10° N 20:36:13 78° ENE 20:42:04 10° SSE
Cosmos 1570 Rocket 4.3 20:32:23 10° NNW 20:37:40 59° ENE 20:42:23 13° SE
Cosmos 2297 Rocket 3.4 20:37:49 12° SSE 20:41:43 23° E 20:46:02 10° NE
Aureole 3 4.0 20:38:19 10° S 20:42:51 87° WNW 20:48:35 10° N
Cosmos 1707 Rocket 4.3 20:38:52 10° SSW 20:43:13 56° WNW 20:47:34 10° N
Cosmos 2219 Rocket 2.7 20:44:43 10° NNW 20:50:18 58° WSW 20:55:42 11° S
NOSS 8 (E) 4.4 20:47:21 10° SSW 20:51:32 77° SE 20:54:46 10° NE
BREEZE-M DEB (TANK) 4.0 20:49:05 10° W 20:53:03 76° N 21:08:26 10° ENE
Landsat 4 3.5 20:52:02 17° SSE 20:54:33 67° ENE 20:57:58 10° N
ATLAS 2AS CENTAUR R/B 3.9 20:49:36 10° NW 20:55:31 33° WSW 21:01:17 10° S
Cosmos 1733 Rocket 4.3 20:53:59 10° NNW 20:58:05 38° W 21:02:11 10° SSW
NOSS 5 (C) 4.3 20:57:00 10° NW 21:00:08 72° SW 21:02:10 21° SSE
Cosmos 1455 1.9 20:56:58 10° N 21:00:30 80° E 21:03:00 18° SSE
Spot 2 Rocket 3.6 20:56:42 13° SSE 21:01:20 81° WSW 21:06:28 10° NNW
Cosmos 1408 3.6 21:01:32 19° ESE 21:02:17 20° E 21:04:37 10° NE
SPOT 3 Rocket 3.5 20:58:51 14° SSE 21:03:18 90° E 21:08:32 10° NNW
SL-08 R/B 4.4 21:02:31 10° S 21:08:36 77° E 21:14:42 10° N
SeaSat 1 2.4 21:08:35 18° SSE 21:12:13 87° ENE 21:17:10 10° NNW
Cosmos 2242 Rocket 4.5 21:14:55 21° SE 21:17:17 35° E 21:21:26 10° NNE
Cosmos 2360 Rocket 4.4 21:15:52 10° WNW 21:19:32 18° W 21:23:11 10° SW
Cosmos 1953 2.8 21:16:11 10° NNW 21:19:54 53° W 21:22:43 16° SSW
Cosmos 158 Rocket 4.0 21:14:40 10° NNW 21:19:56 87° WSW 21:23:25 21° SSE
Cosmos 1908 Rocket 3.7 21:15:53 10° NNW 21:20:11 69° W 21:23:22 18° S
COSMOS 2428 2.9 21:15:14 10° NNW 21:20:55 70° WSW 21:25:01 19° SSE
Cosmos 2208 Rocket 4.0 21:16:21 10° NNW 21:21:32 81° WSW 21:25:04 21° SSE
Cosmos 1782 Rocket 3.6 21:19:51 10° N 21:24:10 68° E 21:26:41 24° SSE
CENTAUR R/B 3.3 21:23:46 21° SSE 21:26:10 28° ESE 21:31:37 10° NE
Ariane Rocket 3.6 21:22:31 14° S 21:26:47 52° W 21:31:46 10° NNW
Cosmos 1300 Rocket 3.6 21:25:13 10° N 21:29:32 64° E 21:31:51 26° SSE
EXPRESS MD2 2.8 21:27:43 10° WNW 21:30:06 45° NNE 21:30:59 26° ENE
Cosmos 2084 Rocket 3.3 21:27:11 10° SSW 21:31:29 74° SE 21:35:39 10° NE
Cosmos 1486 Rocket 3.9 21:31:43 10° SSW 21:36:52 88° ESE 21:42:07 10° NNE
Cosmos 405 Rocket 3.9 21:39:10 10° N 21:42:32 30° ENE 21:43:50 24° ESE
MetOp-A 4.1 21:40:03 23° S 21:43:25 78° WSW 21:48:35 10° NNW
ARIANE 5 R/B 3.3 21:41:49 24° ESE 21:43:53 41° ENE 21:47:59 10° N
GP-B 3.0 21:40:18 10° N 21:44:44 83° E 21:47:06 27° S
BREEZE-M DEB (TANK) 4.3 21:40:43 10° WNW 21:44:48 26° NNW 21:46:54 10° NE
SJ 16-02 4.3 21:43:19 10° W 21:45:49 15° NW 21:48:19 10° NNW
NOSS 0 Rocket 4.1 21:41:05 10° NNW 21:47:16 66° WSW 21:51:08 24° S
Cosmos 371 Rocket 3.3 21:43:56 13° SSW 21:48:11 82° WNW 21:53:03 10° NNE
BlueWalker 3 4.0 21:44:58 10° WNW 21:48:18 29° N 21:51:36 10° NE
SL-4 R/B 3.0 21:47:01 10° WNW 21:50:30 30° SW 21:51:26 27° SSW
USA 234 3.2 21:43:58 10° NE 21:50:32 76° SE 21:57:04 10° SW
Terra 3.7 21:48:25 10° SW 21:52:08 23° W 21:55:53 10° NW
H-2A R/B 3.7 21:56:27 22° ESE 21:58:15 31° ENE 22:01:56 10° N
Cosmos 1354 Rocket 4.0 21:55:11 25° S 21:58:16 65° ESE 22:03:31 10° NNE
SL-16 R/B 3.3 21:55:07 10° NNW 22:00:21 35° NE 22:04:11 17° ESE
Landsat 5 4.4 21:57:40 10° N 22:01:39 46° WNW 22:05:09 13° SW
Cosmos 2237 Rocket 2.2 21:56:23 10° NNW 22:02:04 81° WSW 22:05:00 30° SSE
COSMOS 2455 3.6 21:57:45 10° SW 22:03:40 55° NW 22:09:36 10° NNE
Cosmos 1745 Rocket 4.3 21:58:44 15° SSW 22:04:03 68° W 22:10:25 10° N
USA 281 3.6 22:00:04 22° SE 22:04:24 59° ENE 22:10:51 10° NNW
CZ-4C R/B 2.8 22:01:35 10° WSW 22:06:02 51° NW 22:11:38 10° NNE
Cosmos 2227 Rocket 2.3 22:03:20 27° S 22:06:14 56° ESE 22:11:46 10° NE
Meteor 2-5 Rocket 3.8 22:05:17 27° S 22:08:37 74° E 22:14:23 10° NNE
Nadezhda 1 Rocket 4.5 22:02:52 10° NNW 22:08:54 54° W 22:13:02 20° SSW
Cosmos 2151 Rocket 4.1 22:08:25 10° N 22:12:40 46° ENE 22:14:08 33° SE
Cosmos 773 Rocket 4.4 22:10:37 10° NNW 22:15:40 54° WSW 22:18:03 29° SSW
Cosmos 1980 4.0 22:10:57 10° NNW 22:16:31 59° WSW 22:19:14 30° S
Okean 2 Rocket 3.6 22:13:01 10° N 22:17:23 48° ENE 22:18:55 33° SE
Cosmos 304 Rocket 4.4 22:13:19 13° SW 22:17:27 53° WNW 22:22:08 10° NNE
Cosmos 2297 Rocket 2.7 22:19:44 10° SW 22:25:17 59° WNW 22:30:54 10° NNE
ALOS 2 3.4 22:25:43 29° ESE 22:27:19 40° ENE 22:31:26 10° N
MINOTAUR 4 R/B 3.4 22:28:38 10° NNE 22:31:27 83° N 22:31:27 83° N
Cosmos 1461 3.7 22:34:55 31° ESE 22:34:55 31° ESE 22:37:55 10° NE
Cosmos 1703 4.1 22:33:06 27° SW 22:34:32 40° WNW 22:38:02 10° N
CZ-2C R/B 4.0 22:30:32 10° N 22:34:54 61° WNW 22:37:07 28° SW
NOSS 3-2 (A) 3.3 22:33:40 36° S 22:35:29 53° ESE 22:41:18 10° NE
Cosmos 2098 Rocket 4.0 22:29:32 10° N 22:36:02 76° W 22:38:52 33° S
Cosmos 2074 Rocket 4.3 22:33:32 32° SSE 22:36:14 54° E 22:42:17 10° NNE
Cosmos 2181 Rocket 3.9 22:32:42 10° N 22:38:54 88° E 22:41:46 34° S
Cosmos 2219 3.3 22:37:54 36° S 22:39:57 57° ESE 22:45:27 10° NNE
Cosmos 332 Rocket 4.0 22:41:58 27° SW 22:44:35 68° WNW 22:49:29 10° NNE
H-2A R/B 3.8 22:42:04 10° NE 22:44:55 18° E 22:45:13 18° E
Cosmos 1825 1.7 22:44:58 73° SE 22:45:07 75° E 22:48:33 10° NNE
Cosmos 2263 Rocket 2.6 22:44:08 36° SSE 22:45:43 45° ESE 22:50:59 10° NE
Meteor 1-24 Rocket 4.2 22:42:45 23° SSW 22:46:14 57° WNW 22:51:40 10° N
BREEZE-M DEB (TANK) 4.3 22:43:17 10° WNW 22:46:47 70° NNE 22:58:26 10° ESE
NOSS 3-2 (C) 4.0 22:46:16 28° SE 22:46:54 29° ESE 22:51:53 10° NE
Cosmos 2221 Rocket 3.5 22:46:44 47° S 22:47:58 83° E 22:52:24 10° N
Sich 1 Rocket 3.6 22:50:35 10° NNW 22:54:56 71° W 22:56:03 48° SSW
Okean 1 Rocket 3.0 22:52:03 10° N 22:56:26 77° E 22:57:31 50° SSE
Cosmos 1538 Rocket 3.9 22:51:41 10° NNW 22:56:56 88° ENE 22:58:51 41° SSE
Cosmos 1263 4.2 22:55:53 10° N 22:58:45 72° NW 22:58:45 72° NW
Cosmos 1818 3.8 22:56:24 10° NNW 23:01:53 69° NE 23:04:38 30° SE
Cosmos 1892 2.8 23:03:07 49° WSW 23:03:35 54° WNW 23:07:04 10° N
Spot 4 4.0 23:03:31 42° SSW 23:04:58 63° WSW 23:09:47 10° NNW
Cosmos 1937 Rocket 4.1 23:09:52 36° SE 23:11:05 42° ESE 23:15:59 10° NE
Cosmos 1025 Rocket 3.0 23:12:05 54° SSE 23:12:54 70° E 23:17:10 10° NNE
Nadezhda 3 Rocket 4.0 23:08:45 10° N 23:15:01 79° E 23:17:41 37° SSE
CENTAUR R/B 3.0 23:10:49 12° SW 23:16:09 61° NW 23:23:15 10° NE
Cosmos 1975 Rocket 3.8 23:15:39 35° ESE 23:16:27 38° E 23:20:34 10° NNE
ARIANE 5 R/B 4.3 23:19:17 19° WSW 23:20:27 21° W 23:23:45 10° NW
Cosmos 923 Rocket 4.1 23:18:43 10° NNW 23:23:57 68° ENE 23:26:02 36° SE
Cosmos 1455 Rocket 3.2 23:21:13 10° N 23:25:40 67° E 23:26:44 48° SE
Cosmos 1328 4.0 23:25:24 51° WSW 23:26:02 59° W 23:29:53 10° N
Cosmos 1898 Rocket 3.4 23:25:20 45° S 23:26:56 78° ESE 23:32:07 10° NNE
BlueWalker 3 3.9 23:23:53 10° NW 23:27:12 29° N 23:30:31 10° ENE
Aureole 1 Rocket 3.1 23:26:55 50° SW 23:27:55 76° WNW 23:32:55 10° NNE
Cosmos 2184 Rocket 4.2 23:26:26 31° SSW 23:29:34 66° W 23:35:57 10° N
Meteor 1-21 Rocket 4.2 23:27:44 41° S 23:29:51 82° E 23:35:30 10° NNE
H-2A R/B 3.8 23:32:26 25° WSW 23:33:09 27° W 23:36:43 10° NW
USA 234 4.2 23:27:08 10° NE 23:33:20 47° NNW 23:39:32 10° W
Cosmos 2327 Rocket 4.4 23:38:11 38° S 23:40:39 80° E 23:46:48 10° N
SL-16 R/B 2.8 23:39:12 10° NW 23:44:31 41° WSW 23:46:02 34° SW
Cosmos 2237 Rocket 4.3 23:43:05 10° WNW 23:45:08 12° W 23:46:48 11° WSW
Cosmos 2228 4.4 23:42:15 10° N 23:46:04 30° ENE 23:47:42 23° ESE
Cosmos 2154 Rocket 4.3 23:45:18 30° SW 23:48:18 58° WNW 23:54:33 10° N
SL-8 Rocket 4.3 23:46:22 33° SSE 23:48:59 57° E 23:55:03 10° NNE
USA 281 4.3 23:46:56 25° SW 23:49:12 30° WSW 23:54:54 10° NW
Cosmos 1603 4.4 23:44:34 10° NNW 23:50:11 50° ENE 23:54:09 19° SE
Cosmos 2227 Rocket 3.9 23:45:48 10° WSW 23:50:37 28° NW 23:55:26 10° N
Cosmos 1943 3.2 23:45:33 10° NNW 23:51:11 76° ENE 23:53:54 32° SE
Cosmos 1867 3.9 23:50:23 41° SSE 23:51:45 51° ESE 23:57:03 10° NE
Cosmos 2082 4.0 23:50:39 28° SW 23:53:32 61° WNW 23:59:07 10° NNE
PSLV R/B 4.0 23:49:45 10° N 23:53:49 52° WNW 23:54:55 40° WSW
Meteor 2-1 Rocket 4.3 23:48:15 10° N 23:54:09 81° E 23:56:34 37° SSE
